x

Norfolk, Va (44059) Weather Station

6:40pm - Mon 22nd Dec 2014 All times are EST. -5 hours from GMT.

  • Wind
    11mph, 16mph gusts
  • Air Temp 46°f
  • Sea Pressure 1016mb
  • Norfolk, Va
  • Norfolk, Va

More Historic Weather Station data

Upgrade to MSW Pro to gain access to the past 30 days of data for over 8000 Wavebouys and Weather Stations around the globe.

Join Pro

Comparision Forecast

View Surf forecast
   
Mon 12/22 6:40pm 11 16 mph 1016mb - 46f
6:30pm 11 16 mph 1015.6mb - 46f
6:20pm 9 13 mph 1015.4mb - 47f
6:10pm 11 16 mph 1015.2mb - 47f
6:00pm 11 13 mph 1015.4mb 46f 47f
5:50pm 9 13 mph 1015.6mb - 47f
5:40pm 9 11 mph 1015.6mb - 47f
5:30pm 9 11 mph 1015.9mb - 48f
5:20pm 9 13 mph 1015.7mb - 48f
5:10pm 9 16 mph 1015.6mb - 48f
5:00pm 9 16 mph 1015.6mb 46f 49f
4:50pm 9 13 mph 1015.3mb - 49f
4:40pm 9 18 mph 1015mb - 48f
4:30pm 11 18 mph 1014.9mb - 48f
4:20pm 11 25 mph 1015mb - 48f
4:10pm 13 25 mph 1014.9mb - 48f
4:00pm 13 20 mph 1015.4mb 46f 47f
3:50pm 9 16 mph 1016mb - 47f
3:40pm 11 16 mph 1016.4mb - 47f
3:30pm 11 16 mph 1016.6mb - 48f
3:20pm 9 13 mph 1016.4mb - 48f
3:10pm 9 13 mph 1016.4mb - 48f
3:00pm 11 16 mph 1016.3mb 46f 48f
2:50pm 11 20 mph 1016.3mb - 48f
2:40pm 11 18 mph 1016.2mb - 48f
2:30pm 11 16 mph 1016.3mb - 48f
2:20pm 11 20 mph 1016.2mb - 47f
2:10pm 11 20 mph 1016.2mb - 47f
2:00pm 11 22 mph 1016.2mb 46f 47f
1:50pm 13 20 mph 1016.7mb - 47f
1:40pm 11 16 mph 1016.9mb - 47f
1:30pm 11 16 mph 1017mb - 47f
1:20pm 13 20 mph 1017mb - 47f
1:10pm 13 22 mph 1017.4mb - 47f
1:00pm 16 25 mph 1017.6mb 46f 47f
12:50pm 11 20 mph 1017.5mb - 47f
12:40pm 11 18 mph 1018mb - 47f
12:30pm 11 16 mph 1018.1mb - 47f
12:20pm 11 16 mph 1018.2mb - 47f
12:10pm 9 16 mph 1018.5mb - 47f
12:00pm 11 18 mph 1018.6mb 45f 46f
11:50am 11 16 mph 1018.7mb - 46f
11:40am 11 20 mph 1019mb - 46f
11:30am 13 22 mph 1019.2mb - 46f
11:20am 11 20 mph 1019.5mb - 46f
11:10am 11 20 mph 1019.6mb - 46f
11:00am 9 16 mph 1019.8mb 45f 45f
10:50am 7 13 mph 1020mb - 44f
10:40am 9 18 mph 1020mb - 44f
10:30am 11 22 mph 1020mb - 43f
10:20am 11 16 mph 1020.8mb - 43f
10:10am 9 18 mph 1021.2mb - 42f
10:00am 9 13 mph 1021.4mb 45f 42f
9:50am 11 16 mph 1021.2mb - 41f
9:40am 9 13 mph 1021.6mb - 41f
9:30am 9 13 mph 1021.8mb - 42f
9:20am 11 16 mph 1021.7mb - 42f
9:10am 9 13 mph 1021.6mb - 42f
9:00am 9 16 mph 1021.3mb 45f 42f
8:50am 11 13 mph 1020.9mb - 42f
8:40am 13 20 mph 1020.8mb - 42f
8:30am 11 20 mph 1020.9mb - 42f
8:20am 13 18 mph 1021.1mb - 41f
8:10am 11 18 mph 1021.3mb - 41f
8:00am 11 16 mph 1021.8mb 45f 41f
7:50am 9 16 mph 1022mb - 41f
7:40am 9 13 mph 1021.9mb - 41f
7:30am 9 13 mph 1021.6mb - 41f
7:20am 9 13 mph 1021.1mb - 41f
7:10am 11 16 mph 1021mb - 40f
7:00am 11 18 mph 1021mb 45f 40f
6:50am 9 13 mph 1021.4mb - 40f
6:40am 9 16 mph 1021.4mb - 40f
6:30am 11 16 mph 1021.4mb - 40f
6:20am 11 16 mph 1021.4mb - 40f
6:10am 11 18 mph 1021.4mb - 40f
6:00am 11 16 mph 1021.6mb 45f 40f
5:50am 9 18 mph 1021.9mb - 40f
5:40am 11 18 mph 1021.8mb - 40f
5:30am 11 16 mph 1021.9mb - 40f
5:20am 11 18 mph 1022.1mb - 41f
5:10am 11 16 mph 1022.1mb - 41f
5:00am 11 18 mph 1021.6mb 45f 41f
4:50am 11 22 mph 1021.4mb - 41f
4:40am 11 16 mph 1021.7mb - 41f
4:30am 11 16 mph 1021.9mb - 41f
4:20am 11 16 mph 1021.9mb - 41f
4:10am 9 13 mph 1022.1mb - 41f
4:00am 9 13 mph 1022.2mb 46f 41f
3:50am 9 16 mph 1022.2mb - 41f
3:40am 9 13 mph 1022.4mb - 41f
3:30am 9 13 mph 1022.5mb - 41f
3:20am 9 13 mph 1022.8mb - 41f
3:10am 9 13 mph 1022.7mb - 41f
3:00am 11 16 mph 1023mb 46f 41f
2:50am 9 13 mph 1023mb - 41f
2:40am 9 16 mph 1023.1mb - 41f
2:30am 9 13 mph 1023.5mb - 41f
2:20am 9 13 mph 1023.7mb - 41f
2:10am 9 11 mph 1023.6mb - 41f
2:00am 7 11 mph 1023.6mb 46f 41f
1:50am 7 11 mph 1023.5mb - 41f
1:40am 7 11 mph 1023.6mb - 41f
1:30am 9 11 mph 1023.5mb - 40f
1:20am 7 11 mph 1023.6mb - 40f
1:10am 7 9 mph 1023.8mb - 40f
1:00am 7 9 mph 1024mb 46f 40f
12:50am 7 9 mph 1024.1mb - 40f
12:40am 4 7 mph 1024.2mb - 40f
12:30am 4 9 mph 1024.2mb - 40f
12:20am 7 9 mph 1024.2mb - 40f
12:10am 4 7 mph 1024.2mb - 40f
12:00am 4 7 mph 1024.3mb 45f 40f
Sun 12/21 11:50pm 4 9 mph 1024.3mb - 40f
11:40pm 4 7 mph 1024.5mb - 39f
11:30pm 4 7 mph 1024.5mb - 39f
11:20pm 7 9 mph 1024.4mb - 39f
11:10pm 7 9 mph 1024.5mb - 39f
11:00pm 7 9 mph 1024.5mb 45f 39f
10:50pm 7
mph
1024.7mb - 39f
10:40pm 4 7 mph 1024.8mb - 40f
10:30pm 4 7 mph 1024.8mb - 40f
10:20pm 7 9 mph 1024.7mb - 40f
10:10pm 7 9 mph 1024.7mb - 40f
10:00pm 4 9 mph 1024.6mb 45f 40f
9:50pm 7 9 mph 1024.7mb - 40f
9:40pm 4 7 mph 1024.8mb - 40f
9:30pm 4 7 mph 1024.8mb - 40f
9:20pm 4 9 mph 1024.9mb - 40f
9:10pm 4 9 mph 1025mb - 40f
9:00pm 4 9 mph 1025mb 45f 40f
8:50pm 7 9 mph 1025mb - 40f
8:40pm 4 9 mph 1025mb - 39f
8:30pm 4 7 mph 1025mb - 39f
8:20pm 4 7 mph 1025.2mb - 39f
8:10pm 4 7 mph 1025.1mb - 39f
8:00pm 4 7 mph 1025.2mb 45f 39f
7:50pm 4 7 mph 1025.3mb - 39f
7:40pm 4 7 mph 1025.5mb - 40f
7:30pm 4 7 mph 1025.4mb - 40f
7:20pm 4 7 mph 1025.3mb - 40f
7:10pm 4 7 mph 1025.4mb - 40f
7:00pm 4
mph
1025.6mb 45f 40f
6:50pm 2 4 mph 1025.6mb - 39f
6:40pm 4 7 mph 1025.5mb - 39f
6:30pm 4
mph
1025.3mb - 39f
6:20pm 4 7 mph 1025.2mb - 39f
6:10pm 4
mph
1025.2mb - 40f
6:00pm 4 7 mph 1025.3mb 46f 39f
5:50pm 4 7 mph 1025.2mb - 40f
5:40pm 4 7 mph 1025mb - 40f
5:30pm 4 7 mph 1025.1mb - 40f
5:20pm 7 9 mph 1025mb - 40f
5:10pm 7 9 mph 1024.9mb - 40f
5:00pm 7 9 mph 1025mb 46f 40f
4:50pm 7 9 mph 1025.2mb - 40f
4:40pm 4 9 mph 1025.1mb - 40f
4:30pm 7 9 mph 1024.9mb - 41f
4:20pm 7 9 mph 1024.8mb - 41f
4:10pm 4 9 mph 1024.4mb - 41f
4:00pm 7 9 mph 1024.3mb 46f 41f
3:50pm 7 13 mph 1024.1mb - 42f
3:40pm 7 9 mph 1024.1mb - 42f
3:30pm 9 11 mph 1024.1mb - 42f
3:20pm 9 11 mph 1024.1mb - 42f
3:10pm 7 11 mph 1024.3mb - 42f
3:00pm 7 9 mph 1024.3mb 46f 42f
2:50pm 7 13 mph 1024.4mb - 42f
2:40pm 4 9 mph 1024.3mb - 42f
2:30pm 4 9 mph 1024.5mb - 42f
2:20pm 7 11 mph 1024.6mb - 42f
2:10pm 4 9 mph 1024.8mb - 42f
2:00pm 4 9 mph 1025mb 46f 42f
1:50pm 4 7 mph 1025.1mb - 42f
1:40pm 7 11 mph 1025.1mb - 41f
1:30pm 7 9 mph 1025.1mb - 41f
1:20pm 7 11 mph 1025.2mb - 40f
1:10pm 7 9 mph 1025.2mb - 40f
1:00pm 7 9 mph 1025.3mb 46f 40f
12:50pm 9 11 mph 1025.4mb - 40f
12:40pm 9 11 mph 1025.4mb - 40f
12:30pm 9 11 mph 1025.5mb - 40f
12:20pm 9 13 mph 1025.6mb - 40f
12:10pm 9 13 mph 1025.8mb - 40f
12:00pm 9 11 mph 1026mb 46f 40f
11:50am 7 11 mph 1026.3mb - 40f
11:40am 7 11 mph 1026.4mb - 40f
11:30am 9 11 mph 1026.6mb - 39f
11:20am 9 11 mph 1026.7mb - 40f
11:10am 7 11 mph 1026.8mb - 39f
11:00am 7 11 mph 1026.8mb 46f 39f
10:50am 7 9 mph 1026.8mb - 39f
10:40am 7 9 mph 1026.8mb - 39f
10:30am 7 9 mph 1026.9mb - 39f
10:20am 7 9 mph 1026.9mb - 39f
10:10am 7 11 mph 1026.8mb - 39f
10:00am 7 11 mph 1026.6mb 45f 39f
9:50am 9 11 mph 1026.5mb - 39f
9:40am 9 11 mph 1026.4mb - 39f
9:30am 9 11 mph 1026.3mb - 39f
9:20am 7 9 mph 1026.4mb - 38f
9:10am 4 9 mph 1026.3mb - 38f
9:00am 4 7 mph 1026.2mb 45f 38f
8:50am 7 9 mph 1026mb - 38f
8:40am 7 9 mph 1025.9mb - 38f
8:30am 7 9 mph 1025.8mb - 38f
8:20am 7 9 mph 1025.8mb - 38f
8:10am 4 7 mph 1025.8mb - 38f
8:00am 4 7 mph 1025.8mb 45f 38f
7:50am 7 9 mph 1025.7mb - 38f
7:40am 4 7 mph 1025.6mb - 38f
7:30am 4 7 mph 1025.6mb - 38f
7:20am 4 7 mph 1025.5mb - 38f
7:10am 4 7 mph 1025.4mb - 38f
7:00am 4 7 mph 1025.3mb 45f 38f
6:50am 4 7 mph 1025.2mb - 38f
6:40am 7 9 mph 1025.3mb - 38f
6:30am 7 9 mph 1025.2mb - 38f
6:20am 7 9 mph 1025.1mb - 38f
6:10am 7 9 mph 1025mb - 38f
6:00am 7 9 mph 1024.9mb 45f 38f
5:50am 7 9 mph 1024.9mb - 38f
5:40am 7 9 mph 1024.9mb - 38f
5:30am 7 9 mph 1024.9mb - 38f
5:20am 7 9 mph 1024.8mb - 38f
5:10am 7
mph
1024.8mb - 38f
5:00am 4 7 mph 1024.7mb 45f 37f
4:50am 4 7 mph 1024.5mb - 37f
4:40am 4 7 mph 1024.5mb - 37f
4:30am 7
mph
1024.5mb - 37f
4:20am 7
mph
1024.6mb - 38f
4:10am 7
mph
1024.7mb - 38f
4:00am 4 7 mph 1024.7mb 46f 38f
3:50am 4 7 mph 1024.8mb - 37f
3:40am 4 7 mph 1024.8mb - 37f
3:30am 4 7 mph 1024.8mb - 37f
3:20am 4 7 mph 1024.8mb - 37f
3:10am 7
mph
1024.7mb - 37f
3:00am 4 7 mph 1024.8mb 46f 37f
2:50am 4
mph
1024.8mb - 37f
2:40am 4
mph
1024.9mb - 37f
2:30am 4
mph
1024.9mb - 37f
2:20am 4 7 mph 1024.8mb - 37f
2:10am 4 7 mph 1024.8mb - 37f
2:00am 4 7 mph 1024.7mb 46f 37f
1:50am 4
mph
1024.7mb - 38f
1:40am 4 7 mph 1024.6mb - 38f
1:30am 4 7 mph 1024.6mb - 38f
1:20am 4 7 mph 1024.6mb - 38f
1:10am 4 7 mph 1024.6mb - 38f
1:00am 2 4 mph 1024.6mb 46f 38f
12:50am 4 7 mph 1024.5mb - 38f
12:40am 4 7 mph 1024.5mb - 38f
12:30am 4 7 mph 1024.5mb - 38f
12:20am 4 7 mph 1024.6mb - 38f
12:10am 4
mph
1024.6mb - 38f
12:00am 4
mph
1024.7mb 46f 38f
Sat 12/20 11:50pm 2 4 mph 1024.8mb - 38f
11:40pm  -  2 mph 1024.9mb - 38f
11:30pm 2
mph
1025mb - 38f
11:20pm 2 4 mph 1025mb - 38f
11:10pm 2 4 mph 1024.9mb - 38f
11:00pm 2 4 mph 1024.8mb 45f 38f
10:50pm 2 4 mph 1024.8mb - 38f
10:40pm 4
mph
1024.9mb - 38f
10:30pm 2 4 mph 1024.9mb - 38f
10:20pm 4
mph
1024.9mb - 38f
10:10pm 4
mph
1024.8mb - 38f
10:00pm 2 4 mph 1024.9mb 46f 38f
9:50pm 2 4 mph 1024.9mb - 38f
9:40pm 2 4 mph 1024.8mb - 38f
9:30pm 2 4 mph 1024.8mb - 38f
9:20pm 2 4 mph 1024.7mb - 38f
9:10pm 4
mph
1024.8mb - 38f
9:00pm 2 4 mph 1024.9mb 45f 38f
8:50pm 4
mph
1024.9mb - 38f
8:40pm 4
mph
1024.9mb - 38f
8:30pm 4
mph
1024.8mb - 38f
8:20pm 4
mph
1024.7mb - 38f
8:10pm 4 7 mph 1024.7mb - 38f
8:00pm 4
mph
1024.8mb 45f 38f
7:50pm 4 7 mph 1024.8mb - 38f
7:40pm 4 7 mph 1024.8mb - 38f
7:30pm 4 7 mph 1024.9mb - 38f
7:20pm 4 7 mph 1024.9mb - 38f
7:10pm 4 7 mph 1024.8mb - 38f
7:00pm 4 7 mph 1024.8mb 46f 38f
6:50pm 4 7 mph 1024.8mb - 38f
6:40pm 4 7 mph 1024.7mb - 38f
6:30pm 4 7 mph 1024.6mb - 38f
6:20pm 4 7 mph 1024.6mb - 38f
6:10pm 4 7 mph 1024.5mb - 38f
6:00pm 4 7 mph 1024.2mb 46f 38f
5:50pm 4 9 mph 1024.2mb - 38f
5:40pm 4 7 mph 1024.2mb - 38f
5:30pm 4 7 mph 1024mb - 38f
5:20pm 4 7 mph 1024.1mb - 38f
5:10pm 4
mph
1024mb - 39f
5:00pm 4
mph
1024mb 46f 39f
4:50pm 2 4 mph 1024mb - 39f
4:40pm 4 7 mph 1023.9mb - 39f
4:30pm 4
mph
1023.8mb - 39f
4:20pm 4 9 mph 1023.8mb - 39f
4:10pm 4 7 mph 1023.8mb - 39f
4:00pm 2 7 mph 1023.9mb 46f 39f
3:50pm 4
mph
1024mb - 39f
3:40pm 4
mph
1024mb - 39f
3:30pm 2 7 mph 1023.9mb - 39f
3:20pm 4 7 mph 1023.7mb - 39f
3:10pm 2 7 mph 1023.5mb - 39f
3:00pm 4 7 mph 1023.3mb 47f 39f
2:50pm 4 7 mph 1023.4mb - 39f
2:40pm 4 7 mph 1023.6mb - 39f
2:30pm 4 7 mph 1023.5mb - 39f
2:20pm 4 9 mph 1023.5mb - 39f
2:10pm 4 7 mph 1023.8mb - 39f
2:00pm 4 7 mph 1024mb 46f 39f
1:50pm 4 7 mph 1023.8mb - 38f
1:40pm 2 7 mph 1023.9mb - 38f
1:30pm 2 4 mph 1024.3mb - 38f
1:20pm 2 7 mph 1024.2mb - 38f
1:10pm 4 7 mph 1024.3mb - 38f
1:00pm 4 7 mph 1024mb 46f 38f
12:50pm 4 7 mph 1024.3mb - 38f
12:40pm 4 7 mph 1024.6mb - 38f
6:20am 7 9 mph 1024.5mb - 37f
6:10am 7 9 mph 1024.3mb - 36f
6:00am 4 7 mph 1024.1mb 46f 36f
5:50am 4 7 mph 1023.9mb - 36f
5:40am 4 7 mph 1023.7mb - 36f
5:30am 4 9 mph 1023.3mb - 36f
5:20am 7 9 mph 1022.9mb - 36f
5:10am 7 9 mph 1023mb - 36f
5:00am 7 9 mph 1023.1mb 46f 36f
4:50am 9 11 mph 1023mb - 36f
4:40am 9 11 mph 1023mb - 36f
4:30am 7 9 mph 1023.2mb - 36f
4:20am 7 9 mph 1023.4mb - 37f
4:10am 7 9 mph 1023.4mb - 37f
4:00am 9 11 mph 1023.5mb 46f 37f
3:50am 7 11 mph 1023.5mb - 37f
3:40am 7 11 mph 1023.4mb - 37f
3:30am 7 9 mph 1023.4mb - 37f
3:20am 7 9 mph 1023.4mb - 37f
3:10am 7 9 mph 1023.5mb - 37f
3:00am 7 11 mph 1023.5mb 46f 37f
2:50am 7 9 mph 1023.6mb - 37f
2:40am 7 9 mph 1023.5mb - 37f
2:30am 7 9 mph 1023.4mb - 37f
2:20am 7 11 mph 1023.4mb - 37f
2:10am 7 11 mph 1023.2mb - 37f
2:00am 7 9 mph 1023mb 46f 37f
1:50am 9
mph
1023mb - 37f
1:40am 9 11 mph 1023mb - 37f
1:30am 7 9 mph 1022.9mb - 38f
1:20am 7 9 mph 1023mb - 38f
1:10am 7 9 mph 1023mb - 38f
1:00am 7 9 mph 1023mb 46f 38f
12:50am 7 9 mph 1023mb - 38f
12:40am 7 9 mph 1022.9mb - 38f
12:30am 7 9 mph 1023mb - 38f
12:20am 7 9 mph 1023.1mb - 38f
12:10am 4 9 mph 1023.1mb - 39f
12:00am 4 7 mph 1023.2mb 46f 39f
Fri 12/19 11:50pm 7 11 mph 1023mb - 39f
11:40pm 7 11 mph 1023mb - 39f
11:30pm 7 9 mph 1023.1mb - 39f
11:20pm 7 9 mph 1023.2mb - 39f
11:10pm 9 11 mph 1023.1mb - 39f
11:00pm 7 9 mph 1023.1mb 46f 39f
10:50pm 7 9 mph 1023mb - 39f
10:40pm 4 7 mph 1023mb - 39f
10:30pm 4 9 mph 1023mb - 39f
10:20pm 4 7 mph 1022.8mb - 39f
10:10pm 4 9 mph 1022.7mb - 39f
10:00pm 4 7 mph 1022.7mb 46f 39f
9:50pm 4 7 mph 1022.6mb - 39f
9:40pm 4 7 mph 1022.5mb - 39f
9:30pm 7 9 mph 1022.3mb - 39f
9:20pm 7 9 mph 1022.2mb - 39f
9:10pm 9 11 mph 1022.1mb - 39f
9:00pm 7 9 mph 1022.2mb 46f 39f
8:50pm 7 9 mph 1022.1mb - 39f
8:40pm 4 9 mph 1022.1mb - 39f
8:30pm 4 7 mph 1022.1mb - 39f
8:20pm 4
mph
1022mb - 39f
8:10pm 4 7 mph 1022mb - 39f
8:00pm 4 7 mph 1022mb 46f 40f
7:50pm 4 7 mph 1021.8mb - 40f
7:40pm 4 7 mph 1021.8mb - 40f
7:30pm 4 7 mph 1021.9mb - 40f
7:20pm 4 7 mph 1022mb - 40f
7:10pm 4 7 mph 1021.9mb - 40f
7:00pm 4
mph
1021.7mb 46f 40f
6:50pm 4
mph
1021.6mb - 40f
6:40pm 4 7 mph 1021.4mb - 40f
6:30pm 4 7 mph 1021.2mb - 40f
6:20pm 4 7 mph 1021.1mb - 40f
6:10pm 4 9 mph 1020.9mb - 40f
6:00pm 7 9 mph 1020.9mb 46f 40f
5:50pm 7 9 mph 1020.8mb - 40f
5:40pm 7
mph
1020.8mb - 40f
5:30pm 4 9 mph 1020.8mb - 40f
5:20pm 4 9 mph 1020.7mb - 40f
5:10pm 7
mph
1020.5mb - 40f
5:00pm 7 9 mph 1020.3mb 47f 40f
4:50pm 7 9 mph 1020.2mb - 41f
4:40pm 9 11 mph 1020.2mb - 42f
4:30pm 7 11 mph 1020.2mb - 42f
4:20pm 7 11 mph 1020.2mb - 43f
4:10pm 7 11 mph 1020.2mb - 43f
4:00pm 7 11 mph 1020.1mb 47f 43f
3:50pm 7 11 mph 1020mb - 43f
3:40pm 7 9 mph 1019.7mb - 43f
3:30pm 4 9 mph 1019.7mb - 43f
3:20pm 7 9 mph 1019.6mb - 43f
3:10pm 7 9 mph 1019.6mb - 43f
3:00pm 7 9 mph 1019.5mb 47f 43f
2:50pm 7 9 mph 1019.3mb - 43f
2:40pm 7 9 mph 1019.1mb - 43f
2:30pm 7 9 mph 1019mb - 43f
2:20pm 7 9 mph 1019mb - 42f
2:10pm 4 11 mph 1018.9mb - 42f
2:00pm 7 9 mph 1018.9mb 47f 42f
1:50pm 4 9 mph 1018.9mb - 42f
1:40pm 7 9 mph 1019mb - 41f
1:30pm 4 9 mph 1019.1mb - 41f
1:20pm 4 7 mph 1019.1mb - 41f
1:10pm 7 9 mph 1019.3mb - 41f
1:00pm 7 11 mph 1019.3mb 47f 41f
12:50pm 4 7 mph 1019.4mb - 40f
12:40pm 7 11 mph 1019.6mb - 40f
12:30pm 7 9 mph 1019.8mb - 40f
12:20pm 7 11 mph 1019.9mb - 40f
12:10pm 9 11 mph 1020.1mb - 40f
12:00pm 7 11 mph 1020.2mb 47f 40f
11:50am 7 11 mph 1020.3mb - 40f
11:40am 7 9 mph 1020.3mb - 40f
11:30am 9 13 mph 1020.4mb - 40f
11:20am 7 11 mph 1020.6mb - 40f
11:10am 9 11 mph 1020.6mb - 39f
11:00am 9 13 mph 1020.6mb 47f 39f
10:50am 11 13 mph 1020.8mb - 39f
10:40am 9 13 mph 1021.1mb - 39f
10:30am 7 13 mph 1021.4mb - 39f
10:20am 9 13 mph 1021.2mb - 39f
10:10am 9 13 mph 1021.1mb - 39f
10:00am 11 16 mph 1021.1mb 46f 39f
9:50am 11 18 mph 1021.3mb - 38f
9:40am 11 13 mph 1021.3mb - 38f
9:30am 13 18 mph 1021.1mb - 38f
9:20am 11 16 mph 1020.9mb - 38f
9:10am 9 13 mph 1020.6mb - 38f
9:00am 11 13 mph 1020.3mb 46f 38f
8:50am 9 13 mph 1020.2mb - 38f
8:40am 11 13 mph 1020.3mb - 38f
8:30am 11 16 mph 1020.2mb - 38f
8:20am 11 13 mph 1020.2mb - 38f
8:10am 13 16 mph 1020.1mb - 37f
8:00am 11 16 mph 1020mb 46f 37f
7:50am 9 11 mph 1019.9mb - 37f
7:40am 9 11 mph 1019.8mb - 37f
7:30am 9 13 mph 1019.7mb - 37f
7:20am 9 11 mph 1019.6mb - 37f
7:10am 9 11 mph 1019.5mb - 37f
7:00am 9 11 mph 1019.4mb 46f 37f
6:50am 9 11 mph 1019.3mb - 37f
6:40am 9 11 mph 1019.2mb - 37f
6:30am 9 11 mph 1019mb - 37f
6:20am 9 11 mph 1018.8mb - 37f
6:10am 9
mph
1018.6mb - 37f
6:00am 7 9 mph 1018.5mb 46f 38f
5:50am 9
mph
1018.4mb - 38f
5:40am 7 9 mph 1018.3mb - 38f
5:30am 4 7 mph 1018.2mb - 38f
5:20am 4 7 mph 1018.2mb - 38f
5:10am 7
mph
1018.2mb - 38f
5:00am 7
mph
1018.2mb 46f 38f
4:50am 7
mph
1018.2mb - 38f
4:40am 7 9 mph 1018.3mb - 38f
4:30am 7 9 mph 1018.3mb - 38f
4:20am 9 11 mph 1018.3mb - 38f
4:10am 9 11 mph 1018.3mb - 38f
4:00am 9
mph
1018.2mb 46f 38f
3:50am 9
mph
1018.2mb - 38f
3:40am 9
mph
1018.2mb - 38f
3:30am 7 9 mph 1018.3mb - 38f
3:20am 7 9 mph 1018.4mb - 39f
3:10am 7 9 mph 1018.4mb - 39f
3:00am 4 7 mph 1018.3mb 46f 39f
2:50am 7
mph
1018.4mb - 39f
2:40am 4 7 mph 1018.5mb - 39f
2:30am 7 9 mph 1018.8mb - 39f
2:20am 7 9 mph 1018.9mb - 40f
2:10am 4 9 mph 1018.9mb - 40f
2:00am 7 9 mph 1018.7mb 46f 40f
1:50am 7 9 mph 1018.7mb - 40f
1:40am 9 11 mph 1018.7mb - 40f
1:30am 7
mph
1018.5mb - 40f
1:20am 4 7 mph 1018.4mb - 40f
1:10am 4 7 mph 1018.4mb - 41f
1:00am 4
mph
1018.5mb 47f 41f
12:50am 4 7 mph 1018.4mb - 41f
12:40am 4 7 mph 1018.4mb - 41f
12:30am 4 7 mph 1018.5mb - 41f